Terminal Aerodrome Forecast
Issued by NWS

Home | Current Version | Previous Version | Text Only | Print | Product List | Glossary On
Versions: 1 2 3 4 5 6 7 8 9 10 11 12 13 14 15 16 17 18 19 20 21 22 23
000
FTUS43 KEAX 250346 AAA
TAFMKC
TAF AMD
KMKC 250346Z 2504/2524 12006KT P6SM SCT025 BKN040
     FM250600 16009KT P6SM -SHRA VCTS SCT060CB OVC090
      TEMPO 2507/2510 3SM TSRA BKN025CB
     FM251400 15011KT P6SM VCSH BKN015
     FM251900 16011KT P6SM VCSH BKN035=

USA.gov is the U.S. government's official web portal to all federal, state and local government web resources and services.